Location: Unspecified
(51.0950°N, 12.9690°E)
Time: 07:11:01
(UTC+00:00)

Cosmos 2173 Rocket - Visible Passes

Search period start: 21 May 2022 00:00
Search period end: 31 May 2022 00:00
Orbit: 943 x 1001 km, 83.0° (Epoch: 20 May)

Date Brightness Start Highest point End Pass type
(mag) Time Alt. Az. Time Alt. Az. Time Alt. Az.
21 May 5.4 19:34:33 10° SW 19:40:19 41° WNW 19:46:04 10° N visible
22 May 6.3 20:00:07 10° WSW 20:05:09 26° WNW 20:10:13 10° N visible
23 May 6.7 20:26:22 10° W 20:30:12 17° WNW 20:34:03 10° NNW visible
24 May 7.3 20:54:16 10° WNW 20:55:25 10° NW 20:56:35 10° NW visible
26 May 6.7 19:53:50 10° WSW 19:58:10 20° WNW 20:02:31 10° NNW visible
27 May 7.1 20:20:49 10° WNW 20:23:19 13° NW 20:25:51 10° NNW visible
29 May 7.6 02:16:56 10° NE 02:18:16 11° NE 02:19:37 10° ENE visible
